{"data":{"norad_id":55806,"epoch":"2026-05-24T23:22:45.054048Z","epoch_age_seconds":74509,"freshness":"FRESH","line1":"1 55806U 23029L   26144.97413257 -.00000009  00000+0 -55981-4 0  9997","line2":"2 55806  87.9151 309.6048 0000981  84.7030 275.4215 13.19725488155844","mean_motion":13.19725488,"eccentricity":9.81e-5,"inclination_deg":87.9151,"raan_deg":309.6048,"arg_perigee_deg":84.703,"mean_anomaly_deg":275.4215,"bstar":-5.5981e-5,"rev_number":15584,"period_min":109.1136007521,"perigee_km":1185.0266682262,"apogee_km":1186.510706522,"semimajor_km":7563.9056873741,"source":"CELESTRAK","updated_at":"2026-05-25T13:38:22.691201Z"}}